Regional Weather Roundup
Issued by NWS Green Bay, WI

Home | Current Version | Previous Version | Text Only | Print | Product List | Glossary On
Versions: 1 2 3 4 5 6 7 8 9 10 11 12 13 14 15 16 17 18 19 20 21 22 23 24 25 26 27 28 29 30 31 32 33 34 35 36 37 38 39 40 41 42 43 44 45 46 47 48 49 50
408
ASUS43 KGRB 181200
RWRGRB

NORTH-CENTRAL AND NORTHEAST WISCONSIN REGIONAL WEATHER ROUNDUP
NATIONAL WEATHER SERVICE GREEN BAY WI
600 AM CST MON DEC 18 2017

WIZ005-009-010>012-018-019-181300-
NORTH CENTRAL WISCONSIN

CITY           SKY/WX    TMP DP  RH WIND       PRES   REMARKS
IRONWOOD       CLOUDY    26  24  92 SW7       29.77S
MANITOWISH WTR NOT AVBL
ARBOR VITAE    NOT AVBL
EAGLE RIVER    NOT AVBL
LAND O LAKES   NOT AVBL
RHINELANDER    CLOUDY    26  25  96 SW6       29.78F FOG
PHILLIPS       CLOUDY    25  25 100 SW6       29.79R FOG
ANTIGO         NOT AVBL
TOMAHAWK       NOT AVBL
MERRILL        CLOUDY    26  26 100 SW5       29.83S FOG
$$

WIZ013-073-181300-
NORTHEAST WISCONSIN

CITY           SKY/WX    TMP DP  RH WIND       PRES   REMARKS
IRON MOUNTAIN  CLOUDY    27  24  89 SW3       29.79F
MARINETTE      NOT AVBL
$$

WIZ017-030-035>037-045-181300-
CENTRAL WISCONSIN

CITY           SKY/WX    TMP DP  RH WIND       PRES   REMARKS
MEDFORD        NOT AVBL
WAUSAU         CLOUDY    26  26 100 SW5       29.81F FOG
MOSINEE        FOG       27  27 100 SW3       29.84S VSB 1/4
MARSHFIELD     CLOUDY    27  27 100 W7        29.82F FOG
WISC RAPIDS    FOG       28  27  96 W6        29.87S VSB 1
STEVENS POINT  NOT AVBL
WAUPACA        NOT AVBL
SHAWANO        CLOUDY    30  28  94 W6        29.85F FOG
CLINTONVILLE   NOT AVBL
WAUTOMA        CLOUDY    30  28  92 SW7         N/A
$$

WIZ038-039-048-051-181300-
FOX VALLEY

CITY           SKY/WX    TMP DP  RH WIND       PRES   REMARKS
NWS GREEN BAY  CLOUDY    30  27  88 W5        29.86F FOG
APPLETON       CLOUDY    28  28 100 W8        29.85S FOG
OSHKOSH        FOG       30  30 100 SW3       29.87S VSB 1/4
FOND DU LAC    FOG       31  29  92 CALM      29.87F VSB 1/4
$$

WIZ022-050-052-181300-
EAST CENTRAL WISCONSIN

CITY           SKY/WX    TMP DP  RH WIND       PRES   REMARKS
EPHRAIM        NOT AVBL
WASHINGTON ISL NOT AVBL
STURGEON BAY   CLOUDY    28  27  96 W7        29.86F FOG
MANITOWOC      CLOUDY    30  28  92 W7        29.88F FOG
SHEBOYGAN      CLOUDY    30  30 100 S3        29.87F FOG
$$

LMZ563-521-522-541>543-181300-
LAKESHORE

STATION/POSITION TIME  TEMP    WIND        PRES    VSBY  WAVE
                       AIR SEA DIR/SP/G                  HT/PER
                 (UTC) (F)     (DEG/KT/KT) (MB)    (MI)  (FT/S)
SHEBOYGAN LKSHOR 1100   31     250/  2/  3 1012.9F
KEWAUNEE LKSHORE 1130   29     250/  4/  5 1010.9F
NORTHPORT PIER   1140   29      CALM  /  2 1010.8F
SISTER BAY LKSHO 1120   30     250/  8/  9   N/A
MENOMINEE LKSHOR 1130   27     210/  7/  9 1010.7F
$$




USA.gov is the U.S. government's official web portal to all federal, state and local government web resources and services.